Location: East Fork Observatory
(32.9757°N, 94.4485°W)
Time: 04:54:50
(UTC-05:00)

Hubble Space Telescope - Visible Passes

Search period start: 26 March 2019 00:00
Search period end: 05 April 2019 00:00
Orbit: 537 x 540 km, 28.5° (Epoch: 25 March)

Date Brightness Start Highest point End Pass type
(mag) Time Alt. Az. Time Alt. Az. Time Alt. Az.
26 Mar 1.5 21:16:04 10° WSW 21:19:27 40° SSW 21:19:27 40° SSW visible
27 Mar 1.2 21:05:32 10° WSW 21:09:28 44° S 21:09:41 44° SSE visible
28 Mar 1.3 20:55:01 10° WSW 20:58:58 45° S 20:59:53 38° SE visible
29 Mar 1.3 20:44:30 10° WSW 20:48:27 44° S 20:50:02 29° SE visible
30 Mar 1.4 20:34:01 10° WSW 20:37:56 42° S 20:40:11 22° SE visible
30 Mar 3.8 22:15:25 10° WSW 22:15:32 11° WSW 22:15:32 11° WSW visible
31 Mar 1.6 20:23:32 10° WSW 20:27:25 40° S 20:30:20 16° ESE visible
31 Mar 3.6 22:05:08 10° WSW 22:05:40 12° WSW 22:05:40 12° WSW visible
01 Apr 1.8 20:13:04 10° WSW 20:16:53 36° S 20:20:29 11° ESE visible
01 Apr 3.4 21:54:57 10° WSW 21:55:50 13° SW 21:55:50 13° SW visible
02 Apr 2.0 20:02:38 10° WSW 20:06:21 33° SSW 20:10:04 10° SE visible
02 Apr 3.3 21:44:57 10° SW 21:46:01 13° SW 21:46:01 13° SW visible
03 Apr 3.4 21:35:29 10° SW 21:36:14 11° SSW 21:36:14 11° SSW visible
